FW5225 Weather Reports


Display with metric or nautical units.
time (UTC)temp
F
wind
direction
speed
MPH
gust
MPH
rain 1hr
in
rain 24hr
in
rain mn
in
humidity
%
barometer
mb
20260903202525 100 115 1.0 6.0 0.00 0.00 0.00 30 1006.9
20260903202025 101 210 2.0 4.0 0.00 0.00 0.00 30 1007.1
20260903201525 101 199 0.0 8.0 0.00 0.00 0.00 30 1007.1
20260903201024 100 175 2.0 8.0 0.00 0.00 0.00 30 1007.2
20260903200523 100 207 1.0 4.0 0.00 0.00 0.00 31 1007.2
20260903200021 99 259 1.0 5.0 0.00 0.00 0.00 32 1007.3
20260903195521 99 174 2.0 6.0 0.00 0.00 0.00 32 1007.4
20260903195020 98 228 0.0 6.0 0.00 0.00 0.00 33 1007.5
20260903194519 99 119 2.0 4.0 0.00 0.00 0.00 31 1007.5
20260903194017 99 155 1.0 4.0 0.00 0.00 0.00 32 1007.6
20260903193516 98 148 0.0 8.0 0.00 0.00 0.00 34 1007.6
20260903193016 97 154 2.0 8.0 0.00 0.00 0.00 33 1007.7
20260903192514 97 136 2.0 10.0 0.00 0.00 0.00 33 1007.8
20260903192012 98 139 4.0 10.0 0.00 0.00 0.00 32 1007.9
20260903191523 98 192 2.0 8.0 0.00 0.00 0.00 33 1008.1
20260903191012 98 215 0.0 8.0 0.00 0.00 0.00 33 1008.1
20260903190511 98 157 3.0 7.0 0.00 0.00 0.00 32 1008.2
20260903190012 98 171 2.0 7.0 0.00 0.00 0.00 33 1008.3
20260903185509 97 120 1.0 5.0 0.00 0.00 0.00 33 1008.4
20260903185009 97 104 1.0 5.0 0.00 0.00 0.00 33 1008.5
20260903184509 97 205 0.0 6.0 0.00 0.00 0.00 35 1008.6
20260903184009 97 279 2.0 6.0 0.00 0.00 0.00 34 1008.6
20260903183507 97 221 1.0 10.0 0.00 0.00 0.00 35 1008.7
20260903183007 97 169 2.0 10.0 0.00 0.00 0.00 35 1008.8
20260903182505 97 158 2.0 6.0 0.00 0.00 0.00 34 1008.8
20260903182005 96 112 2.0 6.0 0.00 0.00 0.00 33 1008.9
20260903181503 96 85 1.0 5.0 0.00 0.00 0.00 34 1008.9
20260903181004 96 271 1.0 5.0 0.00 0.00 0.00 35 1009.0
20260903180501 96 186 1.0 6.0 0.00 0.00 0.00 37 1009.2
20260903180100 96 200 1.0 6.0 0.00 0.00 0.00 37 1009.2
20260903175558 96 201 2.0 5.0 0.00 0.00 0.00 38 1009.3
20260903175057 96 192 2.0 6.0 0.00 0.00 0.00 36 1009.4
20260903174556 95 169 1.0 6.0 0.00 0.00 0.00 38 1009.3
20260903174055 95 225 1.0 4.0 0.00 0.00 0.00 38 1009.4
20260903173553 94 218 1.0 3.0 0.00 0.00 0.00 39 1009.4
20260903173055 94 192 0.0 5.0 0.00 0.00 0.00 41 1009.5
20260903172551 94 274 1.0 5.0 0.00 0.00 0.00 41 1009.5
20260903172051 94 70 0.0 5.0 0.00 0.00 0.00 42 1009.5
20260903171559 94 172 1.0 5.0 0.00 0.00 0.00 42 1009.4
20260903171048 93 206 2.0 5.0 0.00 0.00 0.00 42 1009.4
20260903170548 93 280 1.0 5.0 0.00 0.00 0.00 44 1009.4
20260903170046 92 222 0.0 4.0 0.00 0.00 0.00 44 1009.4
20260903165545 92 159 1.0 5.0 0.00 0.00 0.00 44 1009.5
20260903165043 92 220 1.0 7.0 0.00 0.00 0.00 44 1009.6
20260903164542 92 159 2.0 7.0 0.00 0.00 0.00 45 1009.5
20260903164041 92 163 1.0 7.0 0.00 0.00 0.00 45 1009.5
20260903163539 91 189 1.0 7.0 0.00 0.00 0.00 46 1009.6
20260903163041 91 156 0.0 4.0 0.00 0.00 0.00 47 1009.6
20260903162538 91 248 1.0 5.0 0.00 0.00 0.00 48 1009.6
20260903162035 90 187 1.0 4.0 0.00 0.00 0.00 48 1009.6
20260903161535 90 204 2.0 4.0 0.00 0.00 0.00 49 1009.6
20260903161034 90 138 1.0 4.0 0.00 0.00 0.00 50 1009.6
20260903160532 90 164 0.0 4.0 0.00 0.00 0.00 50 1009.7
20260903160031 90 151 1.0 4.0 0.00 0.00 0.00 51 1009.7
20260903155531 89 184 0.0 4.0 0.00 0.00 0.00 51 1009.6
20260903155028 89 155 1.0 4.0 0.00 0.00 0.00 51 1009.6
20260903154527 89 186 1.0 4.0 0.00 0.00 0.00 51 1009.6
20260903154025 88 132 0.0 5.0 0.00 0.00 0.00 52 1009.6
20260903153524 88 112 1.0 4.0 0.00 0.00 0.00 53 1009.7
20260903153023 88 181 1.0 4.0 0.00 0.00 0.00 53 1009.7
20260903152522 87 260 0.0 3.0 0.00 0.00 0.00 54 1009.7
20260903152020 87 188 0.0 3.0 0.00 0.00 0.00 55 1009.7
20260903151521 87 181 0.0 3.0 0.00 0.00 0.00 56 1009.6
20260903151018 86 142 0.0 2.0 0.00 0.00 0.00 56 1009.7
20260903150516 86 279 0.0 2.0 0.00 0.00 0.00 57 1009.7
20260903150016 86 208 0.0 2.0 0.00 0.00 0.00 57 1009.7
20260903145514 85 178 0.0 2.0 0.00 0.00 0.00 58 1009.7
20260903145013 85 177 0.0 2.0 0.00 0.00 0.00 59 1009.7
20260903144512 84 169 0.0 2.0 0.00 0.00 0.00 59 1009.7
20260903144010 84 195 0.0 3.0 0.00 0.00 0.00 60 1009.7
20260903143508 84 242 0.0 3.0 0.00 0.00 0.00 60 1009.7
20260903143008 84 228 0.0 3.0 0.00 0.00 0.00 59 1009.6
20260903142507 84 200 0.0 4.0 0.00 0.00 0.00 59 1009.6
20260903142005 84 267 1.0 4.0 0.00 0.00 0.00 58 1009.6
20260903141510 84 267 0.0 4.0 0.00 0.00 0.00 58 1009.4
20260903141004 84 309 0.0 4.0 0.00 0.00 0.00 58 1009.3
20260903140503 84 280 0.0 4.0 0.00 0.00 0.00 58 1009.3
20260903140009 84 267 0.0 2.0 0.00 0.00 0.00 56 1009.3
20260903135503 84 213 0.0 2.0 0.00 0.00 0.00 57 1009.2
20260903135002 84 233 0.0 5.0 0.00 0.00 0.00 56 1009.1
20260903134610 84 281 0.0 5.0 0.00 0.00 0.00 56 1009.0
20260903134058 83 292 0.0 4.0 0.00 0.00 0.00 56 1008.9
20260903133558 83 233 0.0 3.0 0.00 0.00 0.00 55 1008.8
20260903133108 83 263 0.0 2.0 0.00 0.00 0.00 55 1008.8
20260903132558 83 272 0.0 5.0 0.00 0.00 0.00 55 1008.7
20260903132054 83 300 1.0 5.0 0.00 0.00 0.00 54 1008.7
20260903131553 83 201 1.0 5.0 0.00 0.00 0.00 53 1008.6
20260903131056 83 288 0.0 5.0 0.00 0.00 0.00 52 1008.5
20260903130552 83 247 0.0 2.0 0.00 0.00 0.00 52 1008.5
20260903130122 83 265 0.0 2.0 0.00 0.00 0.00 52 1008.4
20260903125552 83 262 0.0 3.0 0.00 0.00 0.00 52 1008.3
20260903125051 83 282 0.0 5.0 0.00 0.00 0.00 53 1008.3
20260903124558 83 280 1.0 5.0 0.00 0.00 0.00 53 1008.2
20260903124050 83 304 1.0 7.0 0.00 0.00 0.00 53 1008.3
20260903123554 83 268 1.0 7.0 0.00 0.00 0.00 54 1008.3
20260903123051 83 298 1.0 8.0 0.00 0.00 0.00 54 1008.2
20260903122549 83 273 3.0 8.0 0.00 0.00 0.00 54 1008.1
20260903122049 83 276 2.0 6.0 0.00 0.00 0.00 54 1008.1
20260903121549 83 269 2.0 6.0 0.00 0.00 0.00 54 1008.1
20260903121048 83 263 3.0 8.0 0.00 0.00 0.00 55 1008.1
20260903120547 84 284 2.0 9.0 0.00 0.00 0.00 53 1008.1
20260903120050 84 259 1.0 9.0 0.00 0.00 0.00 52 1008.1
20260903115549 84 302 3.0 9.0 0.00 0.00 0.00 50 1008.1
20260903115047 84 269 2.0 6.0 0.00 0.00 0.00 48 1008.1
20260903114547 84 311 2.0 9.0 0.00 0.00 0.00 50 1008.1
20260903114048 84 248 3.0 9.0 0.00 0.00 0.00 50 1008.1
20260903113546 84 288 3.0 7.0 0.00 0.00 0.00 53 1008.1
20260903113046 84 280 2.0 7.0 0.00 0.00 0.00 54 1008.1
20260903112546 84 302 0.0 5.0 0.00 0.00 0.00 54 1008.1
20260903112044 84 269 2.0 6.0 0.00 0.00 0.00 54 1008.1
20260903111544 84 259 2.0 6.0 0.00 0.00 0.00 54 1008.2
20260903111044 84 293 2.0 6.0 0.00 0.00 0.00 54 1008.1
20260903110547 84 268 1.0 6.0 0.00 0.00 0.00 54 1008.1
20260903110045 84 259 0.0 4.0 0.00 0.00 0.00 53 1008.1
20260903105545 85 311 0.0 4.0 0.00 0.00 0.00 53 1008.1
20260903105042 85 204 0.0 4.0 0.00 0.00 0.00 52 1008.1
20260903104541 85 225 0.0 3.0 0.00 0.00 0.00 51 1008.2
20260903104039 85 218 0.0 4.0 0.00 0.00 0.00 50 1008.2
20260903103539 85 232 0.0 4.0 0.00 0.00 0.00 49 1008.2
20260903103039 85 217 0.0 4.0 0.00 0.00 0.00 47 1008.3
20260903102537 86 221 0.0 3.0 0.00 0.00 0.00 46 1008.3
20260903102036 86 217 0.0 4.0 0.00 0.00 0.00 45 1008.3
20260903101536 86 194 1.0 5.0 0.00 0.00 0.00 44 1008.3
20260903101035 86 232 1.0 4.0 0.00 0.00 0.00 42 1008.3
20260903100536 86 216 0.0 4.0 0.00 0.00 0.00 41 1008.3
20260903100038 86 261 1.0 5.0 0.00 0.00 0.00 41 1008.3
20260903095533 86 194 1.0 5.0 0.00 0.00 0.00 40 1008.3
20260903095035 87 243 1.0 5.0 0.00 0.00 0.00 40 1008.3
20260903094539 87 275 1.0 5.0 0.00 0.00 0.00 40 1008.3
20260903094032 87 192 1.0 5.0 0.00 0.00 0.00 39 1008.3
20260903093532 87 290 1.0 5.0 0.00 0.00 0.00 40 1008.3
20260903093033 87 147 1.0 5.0 0.00 0.00 0.00 40 1008.3
20260903092532 88 275 1.0 8.0 0.00 0.00 0.00 40 1008.3
20260903092032 88 246 3.0 8.0 0.00 0.00 0.00 41 1008.3
20260903091534 88 277 2.0 11.0 0.00 0.00 0.00 40 1008.3
20260903091031 88 257 4.0 11.0 0.00 0.00 0.00 40 1008.3
20260903090532 88 307 4.0 9.0 0.00 0.00 0.00 40 1008.3
20260903090037 87 273 2.0 7.0 0.00 0.00 0.00 38 1008.2
20260903085529 87 267 2.0 4.0 0.00 0.00 0.00 36 1008.3
20260903085028 87 210 0.0 5.0 0.00 0.00 0.00 33 1008.4
20260903084531 87 278 0.0 5.0 0.00 0.00 0.00 30 1008.3
20260903084027 87 254 0.0 2.0 0.00 0.00 0.00 27 1008.3
20260903083529 87 257 0.0 3.0 0.00 0.00 0.00 26 1008.3
20260903083029 87 222 0.0 4.0 0.00 0.00 0.00 25 1008.3
20260903082526 87 240 1.0 4.0 0.00 0.00 0.00 25 1008.3
20260903082025 87 195 0.0 2.0 0.00 0.00 0.00 25 1008.3
20260903081525 87 240 0.0 2.0 0.00 0.00 0.00 26 1008.3
20260903081027 87 240 0.0 2.0 0.00 0.00 0.00 25 1008.3
20260903080523 88 215 0.0 2.0 0.00 0.00 0.00 26 1008.3
20260903080022 88 183 0.0 2.0 0.00 0.00 0.00 25 1008.3
20260903075522 88 185 0.0 2.0 0.00 0.00 0.00 25 1008.3
20260903075019 89 191 0.0 2.0 0.00 0.00 0.00 25 1008.3
20260903074520 89 150 0.0 2.0 0.00 0.00 0.00 24 1008.3
20260903074018 89 250 0.0 2.0 0.00 0.00 0.00 23 1008.1
20260903073517 90 217 0.0 2.0 0.00 0.00 0.00 23 1008.0
20260903073019 90 272 0.0 3.0 0.00 0.00 0.00 23 1008.0
20260903072515 90 271 0.0 3.0 0.00 0.00 0.00 23 1008.0
20260903072015 90 261 0.0 2.0 0.00 0.00 0.00 24 1007.9
20260903071514 90 259 1.0 2.0 0.00 0.00 0.00 23 1007.9
20260903071013 90 237 0.0 2.0 0.00 0.00 0.00 23 1007.9
20260903070512 91 217 0.0 2.0 0.00 0.00 0.00 23 1008.0
20260903070011 91 217 0.0 2.0 0.00 0.00 0.00 22 1007.9
20260903065511 91 217 0.0 2.0 0.00 0.00 0.00 22 1007.9
20260903065010 91 217 0.0 3.0 0.00 0.00 0.00 22 1007.9
20260903064510 91 213 0.0 5.0 0.00 0.00 0.00 22 1007.8
20260903064010 91 238 1.0 5.0 0.00 0.00 0.00 23 1007.8
20260903063511 91 247 2.0 5.0 0.00 0.00 0.00 23 1007.8
20260903063013 91 294 1.0 5.0 0.00 0.00 0.00 24 1007.8
20260903062509 91 296 2.0 6.0 0.00 0.00 0.00 23 1007.8
20260903062009 91 300 3.0 6.0 0.00 0.00 0.00 23 1007.8
20260903061510 91 345 4.0 7.0 0.00 0.00 0.00 22 1007.8
20260903061012 91 318 3.0 9.0 0.00 0.00 0.00 22 1007.7
20260903060509 91 295 4.0 9.0 0.00 0.00 0.00 22 1007.7
20260903060029 91 322 5.0 9.0 0.00 0.00 0.00 22 1007.6
20260903055511 91 319 5.0 8.0 0.00 0.00 0.00 23 1007.6
20260903055008 91 318 4.0 9.0 0.00 0.00 0.00 23 1007.7
20260903054508 91 298 4.0 8.0 0.00 0.00 0.00 23 1007.7
20260903054008 91 315 3.0 9.0 0.00 0.00 0.00 22 1007.6
20260903053509 92 291 5.0 9.0 0.00 0.00 0.00 22 1007.7
20260903053008 92 300 5.0 9.0 0.00 0.00 0.00 22 1007.7
20260903052510 92 319 4.0 9.0 0.00 0.00 0.00 22 1007.8
20260903052008 92 304 6.0 9.0 0.00 0.00 0.00 21 1007.7
20260903051507 92 308 5.0 10.0 0.00 0.00 0.00 21 1007.8
20260903051008 92 295 6.0 10.0 0.00 0.00 0.00 20 1007.8
20260903050507 93 302 6.0 11.0 0.00 0.00 0.00 20 1007.8
20260903050007 93 288 6.0 11.0 0.00 0.00 0.00 20 1007.7
20260903045507 93 316 6.0 10.0 0.00 0.00 0.00 20 1007.7
20260903045006 93 306 6.0 11.0 0.00 0.00 0.00 20 1007.7
20260903044507 93 324 6.0 11.0 0.00 0.00 0.00 20 1007.7
20260903044008 93 287 6.0 11.0 0.00 0.00 0.00 20 1007.8
20260903043507 93 318 5.0 10.0 0.00 0.00 0.00 21 1007.8
20260903043015 93 302 4.0 10.0 0.00 0.00 0.00 21 1007.8
20260903042507 93 336 4.0 12.0 0.00 0.00 0.00 20 1007.8
20260903042005 93 286 5.0 12.0 0.00 0.00 0.00 19 1007.8
20260903041505 94 302 3.0 9.0 0.00 0.00 0.00 21 1007.8
20260903041004 94 286 5.0 9.0 0.00 0.00 0.00 20 1007.7
20260903040504 94 307 4.0 8.0 0.00 0.00 0.00 21 1007.6
20260903040008 94 298 5.0 8.0 0.00 0.00 0.00 20 1007.6
20260903035504 95 287 3.0 7.0 0.00 0.00 0.00 21 1007.5
20260903035004 95 309 4.0 7.0 0.00 0.00 0.00 20 1007.6
20260903034506 95 279 3.0 9.0 0.00 0.00 0.00 20 1007.5
20260903034004 95 261 5.0 9.0 0.00 0.00 0.00 20 1007.5
20260903033503 95 281 2.0 6.0 0.00 0.00 0.00 20 1007.4
20260903033009 95 280 3.0 7.0 0.00 0.00 0.00 20 1007.4
20260903032505 95 263 2.0 7.0 0.00 0.00 0.00 20 1007.4
20260903032002 95 292 2.0 6.0 0.00 0.00 0.00 21 1007.3
20260903031504 95 296 2.0 5.0 0.00 0.00 0.00 21 1007.3
20260903031002 95 335 2.0 5.0 0.00 0.00 0.00 22 1007.2
20260903030501 95 243 2.0 4.0 0.00 0.00 0.00 23 1007.1
20260903030002 95 278 1.0 4.0 0.00 0.00 0.00 24 1007.1
20260903025501 95 253 1.0 6.0 0.00 0.00 0.00 25 1007.0
20260903025003 96 250 1.0 6.0 0.00 0.00 0.00 25 1006.9
20260903024502 96 254 1.0 6.0 0.00 0.00 0.00 26 1006.9
20260903024001 96 290 1.0 6.0 0.00 0.00 0.00 27 1006.7
20260903023503 96 229 1.0 7.0 0.00 0.00 0.00 27 1006.7
20260903023108 96 286 2.0 7.0 0.00 0.00 0.00 27 1006.7
20260903022600 96 260 3.0 7.0 0.00 0.00 0.00 27 1006.6
20260903022102 96 227 2.0 10.0 0.00 0.00 0.00 27 1006.5
20260903021608 96 207 4.0 10.0 0.00 0.00 0.00 26 1006.5
20260903021100 96 234 4.0 8.0 0.00 0.00 0.00 26 1006.6
20260903020559 96 255 3.0 7.0 0.00 0.00 0.00 26 1006.5
20260903020104 97 269 2.0 8.0 0.00 0.00 0.00 25 1006.5
20260903015602 97 277 4.0 9.0 0.00 0.00 0.00 24 1006.5
20260903015501 97 295 3.0 9.0 0.00 0.00 0.00 24 1006.5
20260903015059 97 270 1.0 9.0 0.00 0.00 0.00 24 1006.4
20260903014607 97 302 5.0 9.0 0.00 0.00 0.00 24 1006.5
20260903014058 97 282 5.0 9.0 0.00 0.00 0.00 24 1006.5
20260903013559 97 297 3.0 7.0 0.00 0.00 0.00 24 1006.4
20260903013101 98 338 4.0 7.0 0.00 0.00 0.00 23 1006.4
20260903012558 98 268 4.0 7.0 0.00 0.00 0.00 23 1006.4
20260903012057 98 300 2.0 8.0 0.00 0.00 0.00 25 1006.4
20260903011558 99 251 3.0 5.0 0.00 0.00 0.00 25 1006.4
20260903011100 99 285 0.0 6.0 0.00 0.00 0.00 26 1006.4
20260903010556 99 223 3.0 9.0 0.00 0.00 0.00 25 1006.3
20260903010057 99 246 2.0 9.0 0.00 0.00 0.00 26 1006.2
20260903005557 99 298 3.0 9.0 0.00 0.00 0.00 26 1006.3
20260903005056 99 249 2.0 7.0 0.00 0.00 0.00 26 1006.3
20260903004555 99 227 3.0 8.0 0.00 0.00 0.00 26 1006.3
20260903004055 99 263 3.0 12.0 0.00 0.00 0.00 26 1006.4
20260903003555 99 267 3.0 12.0 0.00 0.00 0.00 26 1006.4
20260903003054 99 241 4.0 8.0 0.00 0.00 0.00 25 1006.4
20260903002555 100 291 3.0 11.0 0.00 0.00 0.00 25 1006.5
20260903002054 100 275 5.0 11.0 0.00 0.00 0.00 25 1006.5
20260903001554 100 296 4.0 10.0 0.00 0.00 0.00 25 1006.4
20260903001055 100 259 4.0 10.0 0.00 0.00 0.00 25 1006.5
20260903000553 100 250 5.0 10.0 0.00 0.00 0.00 25 1006.4
20260903000053 100 256 1.0 11.0 0.00 0.00 0.00 24 1006.4
20260902235553 100 288 2.0 11.0 0.00 0.00 0.00 24 1006.5
20260902235052 100 291 5.0 11.0 0.00 0.00 0.00 24 1006.5
20260902234607 100 307 6.0 11.0 0.00 0.00 0.00 24 1006.6
20260902234053 101 271 4.0 13.0 0.00 0.00 0.00 24 1006.6
20260902233551 101 300 4.0 13.0 0.00 0.00 0.00 24 1006.7
20260902233052 101 292 2.0 11.0 0.00 0.00 0.00 23 1006.7
20260902232554 102 270 4.0 8.0 0.00 0.00 0.00 23 1006.8
20260902232049 102 253 3.0 7.0 0.00 0.00 0.00 24 1006.8
20260902231604 101 180 2.0 8.0 0.00 0.00 0.00 24 1007.0
20260902231048 101 188 3.0 10.0 0.00 0.00 0.00 24 1007.0
20260902230547 101 179 3.0 10.0 0.00 0.00 0.00 24 1007.0
20260902230052 101 157 3.0 10.0 0.00 0.00 0.00 24 1007.1
20260902225548 101 273 4.0 11.0 0.00 0.00 0.00 25 1007.1
20260902225048 102 230 5.0 11.0 0.00 0.00 0.00 24 1007.3
20260902224547 102 259 2.0 10.0 0.00 0.00 0.00 25 1007.2
20260902224045 102 260 3.0 10.0 0.00 0.00 0.00 24 1007.4
20260902223544 102 175 2.0 13.0 0.00 0.00 0.00 24 1007.5
20260902223046 102 207 3.0 13.0 0.00 0.00 0.00 24 1007.5
20260902222543 102 235 5.0 13.0 0.00 0.00 0.00 25 1007.7
20260902222041 102 223 2.0 14.0 0.00 0.00 0.00 25 1007.6
20260902221541 101 215 4.0 14.0 0.00 0.00 0.00 25 1007.7
20260902221043 102 160 5.0 12.0 0.00 0.00 0.00 25 1007.7
20260902220544 102 178 4.0 7.0 0.00 0.00 0.00 25 1007.8
20260902220040 102 304 3.0 7.0 0.00 0.00 0.00 25 1007.8
20260902215539 101 196 2.0 7.0 0.00 0.00 0.00 26 1007.9
20260902215036 101 184 2.0 9.0 0.00 0.00 0.00 26 1008.1
20260902214539 100 325 3.0 10.0 0.00 0.00 0.00 27 1008.1
20260902214038 100 283 5.0 10.0 0.00 0.00 0.00 27 1008.1
20260902213534 100 185 3.0 9.0 0.00 0.00 0.00 28 1008.2
20260902213034 100 258 4.0 14.0 0.00 0.00 0.00 28 1008.2
20260902212534 99 229 5.0 14.0 0.00 0.00 0.00 29 1008.2
20260902212033 99 288 2.0 12.0 0.00 0.00 0.00 31 1008.3
20260902211537 99 265 6.0 12.0 0.00 0.00 0.00 30 1008.4
20260902211036 99 273 2.0 11.0 0.00 0.00 0.00 31 1008.5
20260902210531 99 300 5.0 11.0 0.00 0.00 0.00 30 1008.6
20260902210030 99 284 5.0 11.0 0.00 0.00 0.00 28 1008.6
20260902205529 100 268 5.0 10.0 0.00 0.00 0.00 32 1008.7
20260902205029 100 279 2.0 7.0 0.00 0.00 0.00 33 1008.8
20260902204529 99 163 3.0 8.0 0.00 0.00 0.00 32 1008.9
20260902204028 99 323 4.0 8.0 0.00 0.00 0.00 33 1008.8
20260902203530 100 241 2.0 7.0 0.00 0.00 0.00 32 1008.9
20260902203027 99 249 3.0 7.0 0.00 0.00 0.00 31 1009.1